www.pogodaiklimat.ru

Погода и климат >> Архив погоды >> Афганистан >> Мазари-Шариф


ПОГОДА в Мазари-Шарифе

  • Прогноз погоды в Мазари-Шарифе
  • Монитор погоды в Мазари-Шарифе

АРХИВ ПОГОДЫ в Мазари-Шарифе

Время (UTC), дата Ветер
(напр.,м/с)
 
Видим.   Явления Облачность Т
(С)
Тd
(С)
f
(%)
Тe
(С)
Тes
(С)
Комфортность P
(гПа)
Po
(гПа)
Тmin
(С)
Tmax
(С)
R
(мм)
R24
(мм)
S
(см)
06 17.03 В 8 12 км ясно +19.8 +5.1 38 +20 +22 1016.2 971.9
09 17.03 СВ 8 15 км ясно +24.6 +2.0 23 +24 +26 комфорт 1014.5 970.1
12 17.03 СВ 6 15 км ясно +25.3 +1.4 21 +24 +25 комфорт 1011.4 967.1
06 18.03 ЮВ 5 15 км н/о +19.6 +2.8 33 +20 +20 998.7 956.0 +10.5
09 18.03 В 6 7000 м мгла 10/4 1050 м
[Sc As trans]
+23.3 +1.5 24 +23 +24 комфорт 999.8 956.0
12 18.03 З 9 2000 м пыльный позёмок 10/4 1050 м
[Sc As trans]
+16.2 +3.2 42 +15 +15 1005.6 961.6
15 18.03 Ю 12 45 км в посл. час дождь со снегом н/о +12.6 +4.3 57 +9 +9 1008.4 964.2
18 18.03 З 7-7
{19}
45 км н/о +15.3 +1.0 38 +14 +14 1006.9 963.2 +23.8 12
21 18.03 Ю 2 35 км н/о +11.9 +4.7 61 +11 +11 1009.2 964.9
00 19.03 СЗ 1 29 км н/о +10.1 +5.3 72 +10 +10 1008.9 964.3
03 19.03 В 1 15 км н/о +10.3 +5.1 70 +10 +10 1011.1 966.4
06 19.03 ЮЗ 6 15 км н/о +16.1 +5.4 49 +15 +15 1012.5 968.7 +8.8
09 19.03 З 4 15 км 4/0
[Ac lent]
+16.6 +3.6 42 +16 +22 1013.1 968.9
12 19.03 СВ 3 21 км н/о +17.5 +2.1 36 +18 +18 1011.1 967.6
18 19.03 ЮЗ 4 18 км слаб. дождь н/о +10.5 +7.9 84 +8 +8 1016.9 972.0 +18.9 2
21 19.03 В 1 18 км {дождь} н/о +9.7 +8.1 90 +9 +9 1016.3 971.3
00 20.03 З 1 25 км н/о +9.7 +8.0 89 +9 +9 1016.6 971.6 1
03 20.03 З 5 19 км н/о +8.6 +6.2 85 +5 +5 1018.4 973.1
06 20.03 З 6 35 км н/о +10.6 +5.0 68 +8 +8 1018.7 973.8 +8.3 1
09 20.03 ЮЗ 6 15 км 8/4 1050 м
[Sc Ac lent]
+13.2 +5.2 58 +11 +12 1017.9 973.3
12 20.03 З 1 26 км н/о +13.6 +5.3 57 +14 +14 1016.8 972.4
15 20.03 З 2 21 км н/о +11.5 +6.5 71 +10 +10 1018.7 973.9
18 20.03 ЮЗ 2 25 км н/о +10.3 +7.0 80 +9 +9 1019.7 974.7 +14.7
21 20.03 ЮВ 1 29 км н/о +10.6 +7.0 78 +10 +10 1019.5 974.5
00 21.03 ЮВ 1 25 км н/о +10.0 +7.1 82 +10 +10 1019.2 974.1
03 21.03 С 1 12 км н/о +10.5 +6.7 77 +10 +10 1020.0 975.0
06 21.03 СЗ 2 13 км н/о +11.2 +6.8 74 +10 +10 1020.9 976.0 +8.7
09 21.03 З 2 12 км 8/4 1050 м
[Sc Ac lent]
+13.4 +6.6 63 +13 +16 1019.5 975.1
12 21.03 Ю 1 23 км н/о +16.9 +6.4 50 +18 +18 1017.0 973.1
18 21.03 З 1 21 км н/о +9.9 +5.9 76 +10 +10 1019.4 974.3 +17.1
00 22.03 В 3 23 км н/о +11.5 +6.1 69 +10 +10 1015.6 970.9
06 22.03 ЮВ 3 21 км {дождь} н/о +13.7 +9.4 75 +13 +13 1018.6 974.2 +9.8 10
09 22.03 СВ 5 15 км 10/3 1050 м
[Sc Ac lent]
+19.2 +6.9 45 +20 +20 1014.3 970.9
12 22.03 С 2 40 км н/о +18.6 +6.1 44 +19 +19 1014.3 970.8 1
15 22.03 В 4 45 км {дождь} н/о +15.7 +5.9 52 +15 +15 1012.4 968.5
18 22.03 З 2 14 км в посл. час дождь со снегом н/о +12.6 +10.7 88 +12 +12 1015.8 971.3 +19.9 7
21 22.03 ЮВ 4 35 км в посл. час дождь со снегом {ливн. осадки} н/о +13.3 +8.8 74 +12 +12 1015.3 970.9
03 23.03 ЮЗ 3 23 км в посл. час дождь со снегом н/о +8.1 +6.5 90 +5 +5 1022.6 977.1
06 23.03 З 5 8000 м слаб. крупа {дождь} н/о +8.2 +6.2 87 +4 +4 1023.4 977.9 +7.7 21
09 23.03 З 3 14 км н/о +9.9 +5.5 74 +8 +8 1022.6 977.4
12 23.03 З 3 15 км н/о +10.9 +5.3 68 +9 +9 1022.0 977.0
15 23.03 В 2 14 км н/о +9.5 +5.9 78 +8 +8 1022.5 977.2
18 23.03 В 3 8000 м ливневой снег н/о +7.7 +5.5 86 +5 +5 1022.7 977.1 +11.3
21 23.03 СВ 1 7000 м ливневой дождь, в посл. час гроза н/о +6.5 +5.3 92 +5 +5 1022.1 976.3

 

Местоположение метеостанции Мазари-Шариф (Афганистан): широта 36.71 долгота 67.21 высота над уровнем моря 378 м.

В архиве по умолчанию представлена погода в Мазари-Шарифе за последнюю неделю. Архивные данные за месяц целиком и за предыдущие месяцы, начиная с января 2011 года, Вы можете получить, выбрав интересующий диапазон дат из раскрывающегося списка и нажав кнопку "Ввод!".


*Определитесь, кто Вы:
робот инопланетянин человек

Внимание! Время в таблицах - всемирное. Для получения местного времени необходимо прибавить поправку, которая равна 4.5 ч.

Смотрите также архив погоды в соседних городах и на ближайших метеорологических станциях:

Погода в Термезе (Сухрандарьинская область, Узбекистан) (58 км)
Погода в Ширабаде (Сухрандарьинская область, Узбекистан) (108 км)
Погода в Койтендаге (Дашогузский велаят, Туркменистан) (139 км)
Погода в Кундузе (Афганистан) (152 км)
Погода в Шурчи (Сухрандарьинская область, Узбекистан) (153 км)
Погода в Байсуне (Сухрандарьинская область, Узбекистан) (166 км)
Погода в Акрабате (Узбекистан) (175 км)
Погода в Пьяндже (Таджикистан) (176 км)
Погода в Ганжине (Таджикистан) (183 км)
Погода в Денау (Сухрандарьинская область, Узбекистан) (184 км)

Пояснения к столбцам:

Ветер - указаны скорость ветра в м/с - средняя за 10 мин, порывы в срок и между сроками (в фигурных скобках) и направление, откуда дует ветер: С - северный, СВ - северо-восточный, В - восточный, ЮВ - юго-восточный, Ю - южный, ЮЗ - юго-западный, З - западный, СЗ - северо-западный.
Видимость - горизонтальная дальность видимости в метрах или километрах. При видимости от 1 до 10 км при отсутствии осадков обычно наблюдается дымка, при ухудшении видимости до 1 км и менее - туман. В сухую погоду видимость может ухудшаться дымом, пылью или мглою.
Явления - указаны атмосферные явления, наблюдавшиеся в срок или в последний час перед сроком; фигурными скобками обозначены явления, наблюдавшиеся между сроками (за 1-3 часа до срока); квадратными скобками обозначены град или гололедные отложения с указанием их диаметра в мм.
Облачность - указаны через наклонную черту общая и нижняя облачность в баллах и высота нижней границы облаков в метрах; квадратными скобками обозначены формы облаков: Ci - перистые, Cs - перисто-слоистые, Cc - перисто-кучевые, Ac - высококучевые, As - высокослоистые, Sc - слоисто-кучевые, Ns - слоисто-дождевые, Cu - кучевые, Cb - кучево-дождевые. Подробнее классификацию облаков см. в Атласе облаков (PDF).
T - Температура воздуха - температура, измеренная на высоте 2 м над землей.
Td - Температура точки росы - температура, при понижении до которой содержащийся в воздухе водяной пар достигнет насыщения.
f - Относительная влажность воздуха - влажноcть воздуха, измеренная на высоте 2 м над землей.
Te - Эффективная температура - температура, которую ощущает одетый по сезону человек в тени. Характеристика душности погоды. При расчете учитывается влияние влажности воздуха и скорости ветра на теплоощущения человека.
Tes - Эффективная температура на солнце - температура, которую ощущает человек, с поправкой на солнечный нагрев. Характеристика знойности погоды. Зависит от высоты солнца над горизонтом, облачности и скорости ветра. Ночью, в пасмурную погоду, а также при ветре 12 м/с и более поправка равна нулю.
P - Атмосферное давление - приведенное к уровню моря атмосферное давление.
Po - Атмосферное давление - измеренное на уровне метеостанции атмосферное давление.
Tmin - Минимальная температура - минимум температуры воздуха на высоте 2 м над землей.
Tmax - Максимальная температура - максимум температуры воздуха на высоте 2 м над землей.
R - Количество осадков - Количество выпавших осадков за период времени, мм. При наведении курсора мыши на число - период времени, за который выпало указанное количество осадков.
R24 - Количество осадков - Количество выпавших осадков за 24 часа, мм.
S - Снежный покров - Высота снежного покрова, см. При наведении курсора мыши на число - состояние снежного покрова и степень покрытия местности в баллах.